Weather History for KBVN - February, 2014

Change the Weather History Date:

Monday, February 10, 2014

  Actual Average (KOFK) Record (KOFK)
Temperature  
Mean Temperature 2 °F 25 °F  
Max Temperature 14 °F 36 °F 70 °F (1951)
Min Temperature -10 °F 15 °F -23 °F (1905)
Degree Days  
Heating Degree Days 63 40  
Month to date heating degree days 406  
Since 1 July heating degree days 4428  
Cooling Degree Days 0 0  
Month to date cooling degree days 0  
Year to date cooling degree days 0  
Moisture  
Dew Point -3 °F    
Average Humidity 73    
Maximum Humidity 82    
Minimum Humidity 61    
Precipitation  
Precipitation 0.00 in 0.03 in 0.50 in (1944)
Month to date precipitation 0.25  
Year to date precipitation 0.84  
Snow  
Snow 0.00 in 0.20 in - ()
Month to date snowfall 2.2  
Since 1 July snowfall 19.5  
Snow Depth -    
Sea Level Pressure  
Sea Level Pressure 30.38 in    
Wind  
Wind Speed 2 mph (SSE)    
Max Wind Speed 9 mph    
Max Gust Speed -    
Visibility 10 miles    
Events      
T = Trace of Precipitation, MM = Missing Value Source: NWS Daily Summary

Daily Weather History Graph

Daily Weather History Graph

Search for Another Location

Airport or City:

Trip Planner

Search our weather history database for the weather conditions in past years. The results will help you decide how hot, cold, wet, or windy it might be!

Date:

Astronomy

Feb. 10, 2014 Rise Set
Actual Time 7:34 AM CST 5:59 PM CST
Civil Twilight 7:05 AM CST 6:28 PM CST
Nautical Twilight 6:32 AM CST 7:00 PM CST
Astronomical Twilight 6:00 AM CST 7:33 PM CST
Moon 2:28 PM CST (2/10) 4:29 AM CST (2/10)
Length of Visible Light 11h 22m
Length of Day
10h 25m
Waxing Gibbous, 85% of the Moon is Illuminated
Feb 10
Waxing Gibbous
Feb 14
Full
Feb 22
Last Quarter
Mar 1
New
Mar 8
First Quarter

Hourly Weather History & Observations

Time (CST) Temp. Windchill Dew Point Humidity Pressure Visibility Wind Dir Wind Speed Gust Speed Precip Events Conditions
12:15 AM -7.2 °F - -12.8 °F 77% 30.39 in 10.0 mi Calm Calm - N/A   Clear
12:35 AM -5.8 °F - -10.5 °F 80% 30.39 in 10.0 mi Calm Calm - N/A   Clear
12:55 AM -4.0 °F - -8.3 °F 82% 30.39 in 10.0 mi Calm Calm - N/A   Clear
1:15 AM -7.1 °F -15.9 °F -12.8 °F 76% 30.39 in 10.0 mi NNW 3.5 mph - N/A   Clear
1:35 AM -4.4 °F - -9.6 °F 78% 30.40 in 10.0 mi Calm Calm - N/A   Mostly Cloudy
1:55 AM -4.5 °F - -9.4 °F 80% 30.40 in 10.0 mi Calm Calm - N/A   Overcast
2:15 AM -2.6 °F - -7.2 °F 80% 30.40 in 10.0 mi Calm Calm - N/A   Overcast
2:35 AM -4.4 °F - -9.9 °F 77% 30.41 in 10.0 mi Calm Calm - N/A   Overcast
2:55 AM -4.5 °F - -9.8 °F 78% 30.41 in 10.0 mi Calm Calm - N/A   Overcast
3:15 AM -2.0 °F - -7.4 °F 78% 30.40 in 10.0 mi Calm Calm - N/A   Overcast
3:35 AM -6.2 °F - -11.9 °F 76% 30.41 in 10.0 mi Calm Calm - N/A   Mostly Cloudy
3:55 AM -7.1 °F - -12.6 °F 77% 30.41 in 10.0 mi Calm Calm - N/A   Scattered Clouds
4:15 AM -7.2 °F - -12.6 °F 77% 30.40 in 10.0 mi Calm Calm - N/A   Scattered Clouds
4:35 AM -6.9 °F - -12.3 °F 77% 30.40 in 10.0 mi Calm Calm - N/A   Clear
4:55 AM -8.3 °F - -13.9 °F 77% 30.39 in 10.0 mi Calm Calm - N/A   Clear
5:15 AM -9.2 °F - -15.3 °F 74% 30.40 in 10.0 mi Calm Calm - N/A   Clear
5:35 AM -6.9 °F - -12.5 °F 77% 30.41 in 10.0 mi Calm Calm - N/A   Clear
5:55 AM -10.8 °F -20.2 °F -16.6 °F 76% 30.42 in 10.0 mi NNW 3.5 mph - N/A   Clear
6:15 AM -9.4 °F - -15.0 °F 76% 30.41 in 10.0 mi Calm Calm - N/A   Clear
6:35 AM -9.6 °F - -15.3 °F 76% 30.41 in 10.0 mi Calm Calm - N/A   Scattered Clouds
6:55 AM -9.4 °F - -15.0 °F 76% 30.41 in 10.0 mi Calm Calm - N/A   Scattered Clouds
7:15 AM -8.5 °F -19.8 °F -13.9 °F 77% 30.41 in 10.0 mi NW 4.6 mph - N/A   Overcast
7:35 AM -7.4 °F - -13.0 °F 77% 30.41 in 10.0 mi Calm Calm - N/A   Overcast
7:55 AM -4.9 °F - -10.3 °F 78% 30.41 in 10.0 mi Calm Calm - N/A   Overcast
8:15 AM -3.6 °F - -8.5 °F 80% 30.42 in 10.0 mi Calm Calm - N/A   Overcast
8:35 AM -2.6 °F - -7.6 °F 79% 30.42 in 10.0 mi Calm Calm - N/A   Overcast
8:55 AM -1.5 °F - -6.2 °F 80% 30.42 in 10.0 mi Calm Calm - N/A   Overcast
9:15 AM -0.2 °F - -4.9 °F 81% 30.42 in 10.0 mi Calm Calm - N/A   Overcast
9:35 AM 0.9 °F - -4.0 °F 80% 30.42 in 10.0 mi Calm Calm - N/A   Overcast
9:55 AM 2.3 °F - -2.6 °F 80% 30.42 in 10.0 mi Calm Calm - N/A   Overcast
10:15 AM 3.9 °F - -0.9 °F 80% 30.41 in 10.0 mi Calm Calm - N/A   Overcast
10:35 AM 5.2 °F -1.9 °F -0.2 °F 78% 30.41 in 10.0 mi SSE 3.5 mph - N/A   Overcast
10:55 AM 5.7 °F -1.3 °F -0.6 °F 75% 30.41 in 10.0 mi South 3.5 mph - N/A   Overcast
11:15 AM 6.8 °F -0.1 °F -0.2 °F 73% 30.41 in 10.0 mi SE 3.5 mph - N/A   Overcast
11:35 AM 8.2 °F 1.6 °F 1.4 °F 74% 30.40 in 10.0 mi SE 3.5 mph - N/A   Overcast
11:55 AM 9.0 °F -0.9 °F 1.2 °F 71% 30.39 in 10.0 mi SSW 5.8 mph - N/A   Overcast
12:15 PM 9.5 °F 3.0 °F 0.7 °F 67% 30.38 in 10.0 mi South 3.5 mph - N/A   Overcast
12:35 PM 10.2 °F - -0.6 °F 62% 30.38 in 10.0 mi Calm Calm - N/A   Overcast
12:55 PM 10.4 °F 2.2 °F 0.5 °F 64% 30.37 in 10.0 mi SSW 4.6 mph - N/A   Overcast
1:15 PM 11.1 °F 4.9 °F 0.7 °F 63% 30.37 in 10.0 mi South 3.5 mph - N/A   Overcast
1:35 PM 11.1 °F 4.9 °F 0.7 °F 63% 30.36 in 10.0 mi South 3.5 mph - N/A   Overcast
1:55 PM 11.5 °F - 1.6 °F 64% 30.36 in 10.0 mi Calm Calm - N/A   Overcast
2:15 PM 12.2 °F 1.7 °F 2.5 °F 65% 30.35 in 10.0 mi SSW 6.9 mph - N/A   Overcast
2:35 PM 12.4 °F 6.3 °F 2.5 °F 65% 30.34 in 10.0 mi ESE 3.5 mph - N/A   Overcast
2:55 PM 12.9 °F - 1.9 °F 62% 30.34 in 10.0 mi Calm Calm - N/A   Overcast
3:15 PM 13.1 °F - 2.3 °F 62% 30.35 in 10.0 mi Calm Calm - N/A   Overcast
3:35 PM 13.6 °F 7.7 °F 2.3 °F 61% 30.35 in 10.0 mi South 3.5 mph - N/A   Overcast
3:55 PM 13.6 °F 7.7 °F 2.3 °F 61% 30.34 in 10.0 mi SSE 3.5 mph - N/A   Overcast
4:15 PM 14.0 °F 8.2 °F 3.2 °F 62% 30.34 in 10.0 mi SE 3.5 mph - N/A   Overcast
4:35 PM 14.0 °F 5.1 °F 3.0 °F 62% 30.35 in 10.0 mi SE 5.8 mph - N/A   Overcast
4:55 PM 13.8 °F 4.9 °F 2.7 °F 61% 30.35 in 10.0 mi SSE 5.8 mph - N/A   Mostly Cloudy
5:15 PM 13.5 °F 5.8 °F 2.5 °F 62% 30.35 in 10.0 mi SSE 4.6 mph - N/A   Scattered Clouds
5:35 PM 13.1 °F 5.4 °F 2.8 °F 64% 30.36 in 10.0 mi South 4.6 mph - N/A   Scattered Clouds
5:55 PM 12.9 °F 5.2 °F 3.2 °F 65% 30.37 in 10.0 mi South 4.6 mph - N/A   Mostly Cloudy
6:15 PM 12.7 °F 3.6 °F 3.2 °F 66% 30.37 in 10.0 mi South 5.8 mph - N/A   Mostly Cloudy
6:35 PM 12.2 °F 2.9 °F 3.4 °F 68% 30.37 in 10.0 mi South 5.8 mph - N/A   Overcast
6:55 PM 12.4 °F 3.1 °F 3.2 °F 67% 30.38 in 10.0 mi South 5.8 mph - N/A   Mostly Cloudy
7:15 PM 11.8 °F 3.9 °F 3.6 °F 69% 30.38 in 10.0 mi SSE 4.6 mph - N/A   Overcast
7:35 PM 12.2 °F 2.9 °F 3.6 °F 68% 30.37 in 10.0 mi SSE 5.8 mph - N/A   Overcast
7:55 PM 12.2 °F -0.2 °F 4.1 °F 70% 30.35 in 10.0 mi SSE 9.2 mph - N/A   Overcast
8:15 PM 12.2 °F 1.7 °F 4.8 °F 72% 30.34 in 10.0 mi SSE 6.9 mph - N/A   Overcast
8:35 PM 12.6 °F 6.5 °F 4.8 °F 71% 30.37 in 10.0 mi South 3.5 mph - N/A   Overcast
8:55 PM 12.2 °F 2.9 °F 4.8 °F 72% 30.37 in 10.0 mi South 5.8 mph - N/A   Overcast
9:15 PM 12.2 °F 4.3 °F 4.8 °F 72% 30.37 in 7.0 mi South 4.6 mph - N/A   Overcast
9:35 PM 12.0 °F 4.1 °F 5.0 °F 73% 30.37 in 10.0 mi SSE 4.6 mph - N/A   Overcast
9:55 PM 11.5 °F 2.1 °F 5.0 °F 75% 30.37 in 10.0 mi South 5.8 mph - N/A   Mostly Cloudy
10:15 PM 9.5 °F -1.5 °F 3.9 °F 78% 30.36 in 10.0 mi SSE 6.9 mph - N/A   Scattered Clouds
10:35 PM 10.4 °F 2.2 °F 4.1 °F 76% 30.37 in 10.0 mi SSE 4.6 mph - N/A   Mostly Cloudy
10:55 PM 10.2 °F 3.8 °F 4.1 °F 76% 30.36 in 10.0 mi SE 3.5 mph - N/A   Overcast
11:15 PM 10.4 °F 0.8 °F 4.5 °F 77% 30.36 in 10.0 mi SSE 5.8 mph - N/A   Mostly Cloudy
11:35 PM 10.2 °F - 4.6 °F 78% 30.36 in 10.0 mi Calm Calm - N/A   Mostly Cloudy
11:55 PM 10.4 °F 2.2 °F 5.0 °F 79% 30.35 in 10.0 mi SSE 4.6 mph - N/A   Overcast